Regional Weather Roundup
Issued by NWS Green Bay, WI

Home | Current Version | Previous Version | Graphics & Text | Print | Product List | Glossary Off
Versions: 1 2 3 4 5 6 7 8 9 10 11 12 13 14 15 16 17 18 19 20 21 22 23 24 25 26 27 28 29 30 31 32 33 34 35 36 37 38 39 40 41 42 43 44 45 46 47 48 49 50

000
ASUS43 KGRB 301110
RWRGRB

NORTH-CENTRAL AND NORTHEAST WISCONSIN REGIONAL WEATHER ROUNDUP
NATIONAL WEATHER SERVICE GREEN BAY WI
600 AM CDT MON MAR 30 2015

WIZ005-009-010>012-018-019-301200-
NORTH CENTRAL WISCONSIN

CITY           SKY/WX    TMP DP  RH WIND       PRES   REMARKS
IRONWOOD       CLEAR     32  27  80 W9        29.83R
MANITOWISH WTR CLEAR     30  26  83 W7        29.84R
ARBOR VITAE    CLEAR     33  27  77 W6        29.84R
EAGLE RIVER    CLEAR     32  24  72 W9        29.82R
LAND O LAKES   CLEAR     32  26  78 W5        29.82R
RHINELANDER    CLEAR     30  25  81 W10       29.84R
PHILLIPS       PTCLDY    31  25  79 CALM      29.87R
ANTIGO         CLEAR     32  27  80 W12       29.85R
TOMAHAWK       CLEAR     32  25  74 W10       29.86R
MERRILL        CLEAR     32  27  81 W8        29.88R
$$

WIZ013-073-301200-
NORTHEAST WISCONSIN

CITY           SKY/WX    TMP DP  RH WIND       PRES   REMARKS
IRON MOUNTAIN  CLEAR     36  25  64 W14G21    29.75R
MARINETTE      CLEAR     36  25  64 W8G17     29.79R
OCONTO         CLEAR     35  28  75 W13G18    29.83R
$$

WIZ017-030-035>037-045-301200-
CENTRAL WISCONSIN

CITY           SKY/WX    TMP DP  RH WIND       PRES   REMARKS
MEDFORD        CLEAR     33  26  76 W10       29.90R
WAUSAU         CLEAR     33  26  75 NW12      29.87R
MOSINEE        CLEAR     32  27  80 CALM      29.90R
MARSHFIELD     CLEAR     34  25  69 W8        29.91R
WISC RAPIDS    CLEAR     33  24  69 W6        29.94R
STEVENS POINT  CLEAR     32  25  74 W6        29.91R
WAUPACA        CLEAR     36  27  70 W10       29.91R
SHAWANO        CLEAR     35  28  75 W7        29.87R
CLINTONVILLE   CLEAR     34  27  75 W9        29.88R
$$

WIZ038-039-048-051-301200-
FOX VALLEY

CITY           SKY/WX    TMP DP  RH WIND       PRES   REMARKS
NWS GREEN BAY  CLEAR     36  28  73 W13       29.87R
APPLETON       PTCLDY    34  27  75 W10       29.89R
OSHKOSH        CLEAR     35  26  69 W8        29.91R
FOND DU LAC    CLEAR     32  26  78 SW7       29.92R
$$

WIZ022-050-052-301200-
EAST CENTRAL WISCONSIN

CITY           SKY/WX    TMP DP  RH WIND       PRES   REMARKS
STURGEON BAY   CLEAR     36  27  69 W15G21    29.83R
MANITOWOC      CLEAR     37  29  72 W13       29.87R
SHEBOYGAN      CLEAR     35  27  72 W8        29.90R
$$

LMZ563-521-522-541>543-301200-
LAKESHORE

STATION/POSITION TIME  TEMP    WIND        PRES    VSBY  WAVE
                       AIR SEA DIR/SP/G                  HT/PER
                 (UTC) (F)     (DEG/KT/KT) (MB)    (MI)  (FT/S)
SHEBOYGAN LKSHOR 1100   38     250/  9/ 11 1013.2R
KEWAUNEE LKSHORE 1100   37     280/ 11/ 15 1009.7S
NORTHPORT PIER   1100   36     240/  7/ 13 1008.5R
SISTER BAY LKSHO 1100   33     260/ 13/ 14   N/A
CHAMBERS ISLAND  1100   35     210/ 12/ 15 1008.8S
MENOMINEE LKSHOR 1100   37     240/ 15     1009.7R
$$


USA.gov is the U.S. government's official web portal to all federal, state and local government web resources and services.